Location: ????????
(38.4362°N, 22.8767°E)
Time: 00:02:51
(UTC+00:00)

Cosmos 1092 Rocket - Pass Details

Date: 06 May 2025
Orbit: 953 x 994 km, 82.9° (Epoch: 16 May)

Event Time Altitude Azimuth Distance (km) Brightness Sun altitude
Rises 17:46:52 0° 331° (NNW) 3,670 8.0 -4.7°
Reaches altitude 10° 17:50:53 10° 306° (NW) 2,726 8.1 -5.4°
Maximum altitude 17:53:34 13° 280° (W) 2,504 7.6 -5.9°
Drops below altitude 10° 17:56:16 10° 254° (WSW) 2,731 7.1 -6.4°
Sets 18:00:19 0° 228° (SW) 3,682 7.3 -7.1°
